Theta_e
325 326 327 327 327 326 328 332 339 344 344 347 353 353 352 344 340 336 332 331 330 329 328 329 329 329 330 330 329 329 329 329 328 328 328 328 329 329 329 330 333 336 339 337
325 326 326 325 326 329 332 334 340 340 340 346 351 350 349 348 342 336 335 333 330 330 331 330 330 328 327 327 326 326 325 325 324 324 323 323 323 323 322 322 323 324 328 331
326 326 324 326 328 331 331 331 337 339 340 342 345 348 348 348 345 340 338 336 333 332 332 332 331 329 328 327 326 325 325 325 326 325 321 320 320 319 319 320 322 325 326 327
326 325 325 326 326 327 327 326 330 337 337 338 340 342 349 346 346 343 343 338 335 334 332 332 330 330 329 328 327 325 324 324 324 325 321 322 320 320 320 320 321 324 325 326
326 325 327 327 329 327 329 326 330 334 333 335 338 336 350 346 348 346 343 338 337 334 331 330 328 326 323 321 322 323 323 324 324 323 323 321 320 320 319 319 320 321 321 322
328 328 325 327 328 329 330 333 335 334 333 334 338 336 345 347 346 344 343 339 336 334 332 329 327 324 322 321 320 320 321 323 323 322 322 321 321 321 320 320 320 318 319 319
327 326 327 326 328 329 329 331 333 333 333 336 339 336 347 343 341 341 341 339 336 333 330 329 326 323 322 320 320 320 321 322 322 322 321 321 321 320 319 319 319 320 320 321
328 328 329 328 329 328 329 329 330 330 329 332 337 335 346 338 337 338 340 337 334 331 330 327 323 320 319 319 319 319 320 321 321 321 321 321 320 319 318 318 318 318 316 316
329 330 329 328 328 329 331 331 330 331 332 329 334 340 339 336 337 339 339 335 332 328 325 323 320 318 318 318 318 319 321 321 321 321 320 319 318 317 316 315 311 311 310 309
333 333 329 329 328 329 331 330 332 331 330 328 330 332 339 340 338 334 335 332 328 324 322 320 318 318 318 318 317 320 322 321 320 320 318 318 315 315 313 311 310 307 306 307
330 333 331 330 331 331 330 331 332 331 330 328 328 339 335 337 335 334 330 328 324 320 321 320 318 318 317 317 319 321 321 320 319 318 317 314 314 311 309 311 309 307 306 306
329 331 330 331 327 328 330 331 331 331 331 331 329 337 333 332 331 329 328 324 321 321 320 320 318 318 317 319 320 320 320 319 318 316 314 312 310 308 306 306 308 305 304 303
328 331 331 331 330 330 331 330 329 331 333 334 329 340 331 329 328 326 323 322 321 320 320 320 318 318 319 320 319 319 319 318 316 314 313 312 310 306 303 305 306 306 304 303
332 333 335 332 333 332 332 330 329 330 332 333 336 336 334 331 328 325 323 321 321 320 320 319 319 319 318 319 319 318 318 315 312 311 313 311 307 304 302 305 306 305 304 304
333 335 332 331 331 330 330 329 330 332 333 335 334 333 330 329 327 324 322 321 320 319 319 319 320 319 318 318 318 318 316 310 308 310 310 309 305 303 302 304 304 304 303 303
333 334 332 332 329 329 330 330 330 330 331 331 330 330 325 324 323 322 321 320 319 318 319 319 318 318 316 317 317 315 312 308 309 309 310 308 306 304 305 303 303 303 302 301
332 335 332 332 329 330 333 332 330 330 329 328 329 326 324 323 322 321 320 319 318 319 318 319 318 315 316 316 317 313 309 306 309 309 309 308 306 305 301 304 303 302 300 300
335 333 331 333 332 334 333 328 328 329 326 325 325 323 322 321 320 319 320 319 318 318 318 316 315 315 315 316 315 310 305 307 308 309 306 305 303 301 300 304 302 301 301 300
331 330 331 332 331 333 331 330 329 328 329 323 323 322 321 319 317 321 318 316 314 314 315 315 314 314 315 316 311 306 307 309 308 305 305 303 302 302 304 303 302 302 301 301
331 333 332 330 330 333 334 329 325 326 334 322 322 322 320 317 320 320 316 313 312 312 312 313 311 313 315 316 308 308 310 308 306 305 304 303 303 303 303 302 302 302 302 302
330 329 328 329 331 333 328 324 324 333 332 322 321 320 318 319 319 317 313 312 310 312 312 313 314 315 316 312 310 311 309 307 304 304 304 303 302 303 303 303 302 301 301 302
331 330 329 330 330 336 324 325 330 327 322 321 320 318 317 317 317 314 311 311 312 312 313 313 314 314 315 314 312 310 308 305 303 305 304 303 303 302 304 303 303 303 303 302
335 337 332 336 333 326 324 324 322 322 321 320 318 316 317 316 314 310 310 311 312 313 313 313 315 313 314 313 311 310 307 305 303 305 303 303 303 303 304 304 303 302 303 305
331 329 331 331 326 325 322 322 321 320 319 317 316 317 316 314 311 311 312 312 313 314 315 314 314 314 313 312 311 309 307 306 304 305 303 303 302 303 304 304 304 302 302 304
331 330 331 329 325 323 321 322 321 319 317 315 315 315 315 314 313 313 313 313 315 315 315 314 315 314 313 313 312 310 308 306 304 303 304 303 303 304 304 304 304 304 303 302
330 331 329 330 327 326 324 321 319 318 316 315 316 315 313 314 314 314 313 315 316 315 316 316 314 313 313 313 312 311 309 307 305 304 304 303 304 304 304 304 306 304 304 304
Wind_Speed
5 9 5 7 3 5 3 8 12 12 9 10 13 13 10 10 12 14 14 14 13 13 15 14 13 13 15 16 17 17 19 19 19 19 19 18 17 15 15 14 15 19 20 20
7 3 6 6 5 8 8 11 13 7 6 8 12 11 10 9 10 11 12 12 11 10 9 9 9 10 12 13 15 16 16 17 19 17 18 18 17 16 16 17 20 19 20 22
1 10 7 7 8 7 6 3 10 10 9 8 10 10 10 9 10 11 10 9 8 7 6 6 7 8 9 11 12 14 14 13 14 15 18 20 20 21 22 24 22 21 22 21
7 6 4 5 4 7 9 2 3 11 11 5 11 2 11 12 8 6 9 7 7 5 3 3 4 5 7 8 8 11 12 13 14 15 19 19 22 25 26 25 24 25 23 21
8 5 6 5 6 4 6 2 4 8 8 6 11 9 10 11 10 9 8 7 6 5 3 5 6 6 6 10 10 11 13 13 14 15 16 20 21 24 26 29 30 26 21 22
7 2 2 7 5 3 9 8 6 4 4 10 5 7 12 8 4 8 8 9 7 5 4 4 2 5 9 13 14 14 15 14 14 15 17 19 21 24 26 31 32 31 30 25
8 6 6 2 9 7 6 7 7 6 6 3 3 7 10 6 5 3 4 9 6 2 4 3 8 12 13 15 16 16 14 14 15 17 19 20 21 22 26 27 31 36 33 28
10 11 2 2 6 4 5 6 7 5 3 4 4 2 7 5 5 4 7 6 4 4 7 8 14 17 19 19 20 19 19 18 18 20 20 21 22 25 26 26 24 25 28 29
7 5 6 7 1 6 6 1 4 6 6 8 4 6 6 6 7 5 6 5 7 10 10 15 19 19 19 21 22 22 20 20 23 25 26 27 28 28 25 22 23 20 20 23
3 6 1 4 2 8 4 4 5 2 5 8 5 3 8 7 7 6 6 7 8 11 12 12 15 18 20 21 21 15 16 18 20 21 24 25 25 24 23 22 23 22 22 25
1 4 7 7 4 7 4 3 2 4 4 6 6 6 6 7 7 6 7 8 11 10 12 12 13 15 20 21 17 13 16 20 22 23 22 23 21 20 20 22 22 23 25 26
4 3 1 8 6 5 10 5 3 5 3 0 6 4 5 6 6 6 7 10 10 13 12 12 18 21 20 14 13 15 18 20 21 20 16 14 14 17 19 20 21 24 24 25
1 1 5 7 7 4 6 5 3 1 4 4 7 6 4 3 3 6 9 10 11 10 12 14 18 17 14 16 17 20 20 18 18 19 14 12 15 16 18 20 22 23 22 22
2 3 3 5 8 6 7 6 4 3 5 5 8 4 3 2 5 7 8 10 11 12 13 14 14 14 16 16 18 20 19 18 18 18 18 12 15 17 20 19 22 23 22 22
2 5 10 12 13 11 10 10 11 11 8 7 7 7 7 8 9 9 11 12 13 14 15 13 13 17 18 20 22 21 19 17 19 17 17 13 15 16 18 19 21 22 22 22
1 5 11 10 8 10 12 10 9 8 6 5 2 8 6 5 10 12 13 13 14 15 15 13 15 17 21 19 22 18 15 15 15 17 16 13 12 14 17 19 19 20 21 22
4 8 8 6 8 4 8 8 7 4 7 8 7 8 9 10 11 13 12 13 16 15 14 14 15 15 16 18 15 11 9 11 13 18 19 14 11 16 17 18 19 20 20 21
9 7 2 6 7 4 7 4 4 4 6 6 6 8 10 11 12 7 12 15 15 15 14 14 12 15 18 16 12 9 9 11 16 19 18 17 17 17 17 19 20 19 19 18
3 4 3 4 2 9 5 3 3 6 5 6 8 9 10 13 13 15 15 15 14 16 17 10 12 15 15 14 10 8 8 14 18 18 17 15 13 16 18 19 19 20 19 18
6 2 4 3 4 2 7 4 4 5 6 6 8 9 12 14 9 11 15 16 16 15 15 14 13 13 15 12 8 8 13 16 18 17 16 12 13 15 17 17 19 17 18 18
4 3 3 4 3 5 5 3 4 5 6 6 8 9 11 10 8 11 15 14 12 13 9 10 10 12 15 10 7 12 14 15 14 16 15 14 14 17 17 16 16 16 17 17
1 2 3 2 3 5 4 4 5 6 5 5 6 9 9 9 10 12 9 9 9 8 9 13 13 15 11 8 10 12 13 12 11 14 14 15 14 13 15 17 18 19 18 18
3 4 3 6 4 7 9 12 8 6 6 6 7 8 8 10 10 8 6 8 9 10 10 11 11 10 8 8 11 11 10 9 10 13 13 13 12 12 14 17 19 20 20 20
4 2 3 7 6 8 9 8 8 8 7 6 6 7 7 9 8 7 7 8 8 11 12 12 11 8 9 10 10 9 8 8 9 11 12 12 12 11 13 17 16 17 18 18
3 8 7 6 8 8 7 8 9 8 6 6 8 8 8 8 8 10 8 6 12 12 12 11 8 8 9 8 8 7 6 6 7 8 11 11 12 10 11 14 18 15 17 22
4 5 3 5 12 2 13 10 9 6 6 6 6 8 8 9 8 8 7 7 11 11 9 9 9 8 7 7 8 6 5 4 5 6 11 9 10 9 10 10 11 15 18 19
Wind_Direction
194 225 195 48 22 60 137 149 117 118 84 104 120 123 121 121 110 107 102 90 83 74 77 64 56 49 53 52 49 45 42 36 26 19 9 1 353 344 332 318 309 306 296 295
203 126 78 106 120 137 141 133 118 113 147 143 143 128 131 128 111 105 104 100 100 93 77 68 64 58 50 46 39 36 34 34 27 18 11 359 344 337 327 324 321 317 313 309
222 93 128 142 137 145 152 139 178 130 155 152 155 157 152 140 136 123 106 107 108 98 102 88 62 51 49 43 34 31 29 27 25 13 5 355 346 341 338 332 325 330 322 318
100 115 175 170 139 266 176 204 185 154 191 217 213 298 182 164 162 152 152 130 130 124 141 116 90 50 34 23 31 27 32 25 25 14 7 355 346 340 332 327 326 321 321 324
101 139 163 120 33 276 67 152 204 193 235 237 180 260 115 163 171 149 155 144 138 159 126 77 56 44 46 27 34 32 29 25 19 10 2 352 346 339 334 331 331 322 319 319
102 119 329 72 63 75 129 126 143 224 232 235 106 282 139 156 150 140 159 138 150 151 132 85 51 46 29 25 23 27 17 16 8 360 356 352 344 338 334 330 325 325 324 321
160 132 113 196 136 150 230 203 213 208 206 22 113 252 52 86 81 14 126 127 144 116 74 35 24 10 16 16 17 7 7 358 359 356 352 349 344 338 335 329 328 325 321 321
188 168 192 342 336 25 39 324 4 309 310 47 144 311 88 60 55 89 76 90 67 34 29 19 26 11 8 4 6 355 350 354 359 356 352 350 346 342 335 339 329 329 330 327
202 105 115 45 195 305 121 305 15 295 199 264 77 118 145 85 67 69 67 48 37 31 21 19 18 12 4 360 354 349 352 355 357 355 352 350 350 349 351 352 348 345 341 338
87 139 158 127 238 63 338 93 255 245 307 313 127 265 54 24 18 27 37 37 31 24 21 20 10 7 358 349 340 356 353 358 354 352 351 351 351 355 360 4 5 1 2 9
26 283 139 205 5 3 175 183 31 292 309 324 306 75 23 38 40 41 33 25 30 7 3 10 351 356 350 348 356 1 358 358 354 351 353 354 354 359 2 4 5 6 8 16
46 338 111 77 96 43 54 39 353 320 15 323 280 82 42 45 52 25 16 27 8 360 8 348 356 357 354 3 358 4 358 354 352 348 354 357 3 4 5 6 5 7 12 14
123 44 163 160 169 128 55 44 60 349 258 58 309 74 70 52 21 24 10 6 358 354 1 352 354 0 3 5 0 352 357 1 351 359 10 17 10 10 9 8 5 7 7 13
54 63 343 1 70 75 93 56 38 313 300 344 58 46 95 5 343 0 1 353 347 345 355 355 351 11 12 356 350 354 6 5 10 9 13 21 18 13 8 3 4 7 10 15
62 99 100 91 96 96 83 68 58 61 41 19 44 32 34 17 357 347 343 352 338 348 349 359 7 6 356 354 352 3 8 20 10 2 16 18 19 16 13 10 9 12 18 22
102 133 122 109 121 106 86 69 75 64 30 72 329 79 26 16 349 349 342 351 348 346 344 6 4 1 0 346 355 7 20 9 7 14 14 21 22 16 9 12 15 22 24 27
147 151 188 125 143 150 115 43 49 82 48 348 19 20 1 357 347 341 7 355 347 351 359 356 6 1 341 343 15 15 25 8 6 14 18 16 26 21 15 13 22 23 23 24
146 155 187 133 182 205 89 66 38 37 46 39 30 5 360 353 338 17 27 359 358 349 349 354 346 344 341 6 36 54 24 10 20 21 22 20 38 27 20 25 24 22 24 25
156 187 125 192 133 115 164 143 7 348 83 37 1 358 351 343 313 93 19 4 355 345 343 351 349 341 359 18 66 65 30 32 26 22 22 28 31 24 28 26 23 21 26 28
106 166 253 181 158 144 81 99 345 284 151 34 8 3 351 342 344 9 9 6 357 4 18 4 351 341 9 33 73 59 46 37 31 21 27 42 36 32 32 31 25 21 21 20
124 72 111 150 102 107 77 345 296 255 57 37 15 7 1 3 5 3 16 8 1 5 10 345 15 21 30 75 79 59 49 42 35 30 44 49 47 44 38 31 22 17 12 16
134 183 118 166 154 142 23 202 315 85 82 34 28 13 1 14 18 27 19 355 14 27 18 14 20 42 43 62 59 60 53 47 45 42 53 53 48 44 36 26 23 22 20 19
164 14 68 358 63 103 71 90 94 80 72 48 22 23 19 33 33 38 10 27 33 49 37 23 31 35 55 61 52 61 57 54 52 41 52 51 44 39 30 30 26 25 30 26
114 129 99 186 136 127 113 108 99 85 77 53 43 51 46 62 53 53 54 52 63 55 40 24 25 65 72 63 60 62 59 59 58 42 55 53 42 41 40 38 36 32 29 22
40 168 139 95 133 135 142 130 120 104 83 69 73 63 67 69 62 73 63 63 66 56 38 47 65 72 69 59 58 54 58 58 65 45 41 49 51 48 41 42 41 43 34 35
186 136 227 92 143 54 135 138 127 106 82 74 88 94 83 59 62 85 73 57 62 49 51 58 75 73 62 48 46 63 77 71 68 45 43 46 48 51 42 36 65 44 37 42